GFSNW_prec_precacc_252.txt.gz
Total_Precipitation_Accumulation
0.87 0.80 0.85 0.93 1.47 2.09 2.15 1.75 1.70 1.84 1.27 1.58 1.23 0.76 0.46 0.16 0.04 0.01 0.00 0.00 0.01 0.01 0.02 0.01 0.01 0.01 0.02 0.02 0.01 0.01 0.00 0.13 0.17 0.11 0.06 0.06 0.07 0.03 0.12 0.42 0.26 0.41 0.56 0.44
0.68 0.69 0.67 0.77 1.03 1.40 2.02 1.55 1.84 1.97 0.94 0.76 0.57 0.30 0.08 0.09 0.06 0.03 0.00 0.00 0.00 0.01 0.01 0.01 0.01 0.00 0.00 0.00 0.00 0.01 0.01 0.15 0.22 0.24 0.20 0.12 0.17 0.05 0.10 0.22 0.48 0.38 0.49 0.14
0.74 0.63 0.53 0.65 0.97 1.19 1.55 1.28 1.76 2.30 1.30 0.36 0.09 0.14 0.12 0.06 0.03 0.01 0.01 0.02 0.02 0.01 0.01 0.00 0.00 0.00 0.00 0.00 0.00 0.02 0.11 0.17 0.12 0.14 0.31 0.42 0.32 0.07 0.09 0.39 0.68 0.20 0.13 0.05
0.90 0.75 0.59 0.60 0.96 1.32 1.23 0.82 0.49 0.57 0.71 0.23 0.03 0.05 0.07 0.04 0.01 0.01 0.03 0.04 0.04 0.02 0.02 0.01 0.00 0.00 0.00 0.00 0.02 0.13 0.33 0.25 0.11 0.12 0.22 0.58 0.38 0.14 0.11 0.39 0.19 0.35 0.10 0.06
1.23 1.05 0.66 0.57 0.95 1.09 1.13 0.93 0.34 0.11 0.03 0.02 0.01 0.02 0.05 0.04 0.02 0.03 0.04 0.01 0.01 0.03 0.03 0.01 0.00 0.00 0.00 0.01 0.03 0.13 0.31 0.38 0.33 0.34 0.25 0.35 0.27 0.07 0.13 0.13 0.04 0.05 0.02 0.04
1.16 1.00 0.77 0.62 0.86 1.20 1.07 0.96 0.35 0.16 0.09 0.03 0.02 0.01 0.02 0.03 0.03 0.03 0.00 0.01 0.02 0.03 0.01 0.01 0.01 0.01 0.01 0.01 0.07 0.26 0.42 0.47 0.67 0.52 0.18 0.19 0.26 0.08 0.06 0.10 0.07 0.03 0.05 0.06
1.13 1.05 0.94 0.86 1.03 1.17 0.99 0.94 0.61 0.27 0.16 0.04 0.02 0.01 0.00 0.01 0.02 0.04 0.00 0.00 0.03 0.02 0.01 0.01 0.01 0.00 0.01 0.01 0.01 0.05 0.19 0.43 0.78 0.88 0.44 0.44 0.25 0.10 0.14 0.15 0.13 0.09 0.06 0.07
1.22 1.01 0.89 1.06 1.21 1.06 0.91 0.83 0.82 0.52 0.34 0.07 0.03 0.04 0.06 0.06 0.08 0.04 0.02 0.02 0.01 0.02 0.03 0.06 0.07 0.03 0.01 0.00 0.00 0.01 0.02 0.18 0.43 0.45 0.30 0.15 0.04 0.07 0.11 0.10 0.13 0.05 0.03 0.02
2.03 1.68 1.27 1.25 1.24 1.31 1.26 1.04 1.08 0.96 0.76 0.30 0.09 0.16 0.14 0.19 0.17 0.08 0.03 0.01 0.02 0.05 0.12 0.20 0.16 0.05 0.03 0.01 0.01 0.00 0.01 0.03 0.21 0.16 0.28 0.08 0.02 0.01 0.02 0.02 0.08 0.01 0.00 0.01
2.15 1.91 1.59 1.42 1.58 1.78 1.51 1.57 1.42 1.79 1.45 0.59 0.23 0.34 0.31 0.22 0.18 0.18 0.05 0.04 0.06 0.09 0.18 0.33 0.15 0.04 0.00 0.01 0.01 0.02 0.06 0.14 0.20 0.17 0.31 0.01 0.00 0.00 0.00 0.05 0.06 0.00 0.00 0.00
2.20 2.04 1.83 1.70 1.74 1.84 1.83 1.85 1.72 2.10 1.79 0.95 0.38 0.24 0.24 0.20 0.19 0.26 0.14 0.17 0.17 0.23 0.35 0.36 0.14 0.07 0.03 0.01 0.00 0.00 0.03 0.07 0.12 0.16 0.27 0.04 0.00 0.00 0.02 0.03 0.00 0.00 0.01 0.01
1.79 1.66 1.40 1.29 1.48 1.66 1.87 1.91 1.84 1.90 2.03 1.40 0.56 0.32 0.20 0.13 0.12 0.16 0.18 0.24 0.19 0.32 0.39 0.35 0.22 0.15 0.07 0.03 0.04 0.00 0.01 0.00 0.05 0.10 0.03 0.00 0.00 0.01 0.01 0.00 0.00 0.00 0.00 0.00
1.70 1.54 1.24 1.12 1.19 1.23 1.43 1.26 1.37 1.64 1.83 1.14 0.62 0.32 0.17 0.15 0.16 0.19 0.33 0.31 0.28 0.34 0.28 0.48 0.39 0.28 0.12 0.08 0.03 0.01 0.01 0.00 0.01 0.01 0.00 0.00 0.00 0.00 0.01 0.00 0.00 0.00 0.01 0.01
1.64 1.63 1.42 1.19 1.23 1.22 1.38 0.97 0.87 1.18 1.37 1.16 0.44 0.10 0.09 0.08 0.15 0.24 0.28 0.31 0.37 0.48 0.68 0.72 0.59 0.32 0.12 0.09 0.02 0.02 0.02 0.00 0.00 0.01 0.00 0.00 0.00 0.00 0.00 0.00 0.00 0.00 0.00 0.00
1.31 1.42 1.35 1.27 1.56 1.33 1.05 0.94 0.85 0.77 1.24 1.37 0.48 0.27 0.09 0.12 0.22 0.27 0.31 0.34 0.50 0.56 0.85 0.91 0.51 0.25 0.20 0.14 0.08 0.03 0.00 0.00 0.00 0.00 0.00 0.00 0.00 0.00 0.00 0.00 0.00 0.00 0.00 0.00
1.30 1.35 1.55 1.37 1.64 1.64 1.42 2.05 1.52 1.02 1.05 1.75 1.27 0.56 0.19 0.12 0.18 0.22 0.31 0.38 0.57 0.83 0.71 0.72 0.46 0.18 0.35 0.40 0.09 0.00 0.00 0.00 0.00 0.00 0.00 0.00 0.00 0.00 0.00 0.00 0.00 0.00 0.00 0.00
1.46 1.59 1.79 1.45 2.11 2.20 1.99 1.63 1.37 1.14 1.44 2.33 2.36 1.32 0.62 0.21 0.33 0.44 0.49 0.48 0.72 1.14 0.96 0.65 0.42 0.36 0.73 0.57 0.12 0.00 0.01 0.01 0.01 0.01 0.00 0.00 0.00 0.00 0.00 0.00 0.00 0.00 0.00 0.00
2.04 1.91 1.97 2.21 2.98 3.03 2.61 1.05 1.04 1.28 2.39 3.12 2.88 1.80 1.24 0.43 0.75 0.69 0.52 0.51 0.67 1.36 0.96 0.44 0.32 0.49 0.63 0.54 0.04 0.05 0.04 0.04 0.02 0.01 0.02 0.01 0.01 0.00 0.00 0.00 0.00 0.00 0.00 0.00
3.07 2.90 2.92 3.44 3.05 2.45 2.37 1.72 1.60 1.86 2.94 3.18 2.00 1.34 1.09 0.88 0.94 0.76 0.87 0.67 1.04 1.15 0.87 0.29 0.36 0.47 0.67 0.17 0.09 0.11 0.14 0.15 0.17 0.13 0.06 0.06 0.05 0.02 0.03 0.02 0.03 0.05 0.05 0.04
3.28 3.76 3.52 3.07 2.06 1.89 2.53 3.89 4.70 5.22 4.27 2.66 1.48 0.82 0.76 1.17 1.09 1.13 1.31 1.24 1.10 1.21 0.63 0.48 0.76 0.38 0.09 0.07 0.12 0.09 0.15 0.30 0.34 0.45 0.33 0.21 0.27 0.15 0.10 0.15 0.11 0.13 0.16 0.15
2.93 3.06 2.82 2.34 2.11 2.34 3.80 4.86 4.29 3.26 2.41 1.49 0.89 0.63 0.71 0.82 1.05 1.03 1.26 1.63 1.40 1.32 0.69 0.60 0.69 0.57 0.17 0.07 0.05 0.04 0.08 0.18 0.14 0.31 0.34 0.23 0.38 0.44 0.30 0.31 0.33 0.35 0.37 0.37
2.34 2.15 2.05 2.41 3.32 4.02 3.96 3.42 1.95 1.16 0.91 0.95 0.83 0.61 0.58 0.94 1.00 1.48 1.61 1.41 1.27 1.00 0.62 0.99 0.70 0.39 0.22 0.20 0.09 0.06 0.04 0.06 0.07 0.10 0.24 0.20 0.12 0.19 0.26 0.30 0.33 0.31 0.37 0.40
2.02 2.86 3.46 3.22 3.47 3.50 2.53 1.48 0.93 0.78 0.62 0.65 0.42 0.61 0.82 1.28 1.57 2.15 1.86 1.54 0.96 0.75 0.94 0.78 0.36 0.14 0.06 0.11 0.19 0.21 0.17 0.10 0.25 0.27 0.19 0.13 0.11 0.12 0.20 0.25 0.15 0.17 0.20 0.21
3.21 3.33 3.12 2.18 1.84 1.13 0.76 0.51 0.41 0.38 0.49 0.56 0.58 0.68 0.96 1.24 1.48 1.58 1.60 1.13 0.94 1.22 0.91 0.55 0.28 0.19 0.11 0.05 0.08 0.14 0.19 0.17 0.29 0.61 0.67 0.55 0.55 0.47 0.38 0.38 0.35 0.33 0.30 0.24
3.77 2.89 1.88 1.08 0.62 0.37 0.40 0.36 0.40 0.46 0.71 1.01 1.09 1.16 1.20 1.37 1.73 1.31 1.07 1.21 1.29 0.87 0.61 0.51 0.42 0.40 0.36 0.33 0.27 0.23 0.26 0.34 0.40 0.46 0.62 0.64 0.50 0.35 0.39 0.52 0.50 0.37 0.32 0.27
3.29 2.43 1.16 0.49 0.28 0.36 0.24 0.30 0.41 0.45 0.62 0.98 1.37 1.47 1.50 1.43 1.29 1.23 0.94 0.98 0.76 0.66 0.66 0.66 0.57 0.53 0.52 0.55 0.49 0.45 0.45 0.49 0.58 0.59 0.70 0.64 0.68 0.74 0.73 0.60 0.67 0.58 0.47 0.45
3.29 1.38 0.57 0.40 0.32 0.31 0.31 0.35 0.41 0.53 0.72 0.97 1.34 1.55 1.10 1.13 1.21 0.85 0.72 0.85 0.76 0.66 0.55 0.45 0.45 0.42 0.45 0.48 0.43 0.44 0.47 0.47 0.54 0.65 0.76 0.88 0.95 0.88 0.79 0.74 0.88 0.82 0.85 0.86

GFSNW_prec_precacc_258.txt.gz
Total_Precipitation_Accumulation
0.87 0.80 0.85 0.93 1.47 2.09 2.15 1.75 1.70 1.84 1.27 1.58 1.23 0.76 0.46 0.16 0.04 0.01 0.00 0.00 0.01 0.01 0.02 0.01 0.01 0.01 0.02 0.02 0.01 0.01 0.00 0.13 0.17 0.11 0.06 0.06 0.07 0.03 0.12 0.42 0.26 0.41 0.56 0.44
0.68 0.69 0.67 0.77 1.03 1.40 2.02 1.55 1.84 1.97 0.94 0.76 0.57 0.30 0.08 0.09 0.06 0.03 0.00 0.00 0.00 0.01 0.01 0.01 0.01 0.00 0.00 0.00 0.00 0.01 0.01 0.15 0.22 0.24 0.20 0.12 0.17 0.05 0.10 0.22 0.48 0.38 0.49 0.14
0.75 0.63 0.53 0.65 0.97 1.19 1.55 1.28 1.76 2.30 1.30 0.36 0.09 0.14 0.12 0.06 0.03 0.01 0.01 0.02 0.02 0.01 0.01 0.00 0.00 0.00 0.00 0.00 0.00 0.02 0.11 0.17 0.12 0.14 0.31 0.42 0.32 0.07 0.09 0.39 0.69 0.20 0.13 0.05
0.92 0.75 0.59 0.60 0.96 1.32 1.23 0.82 0.49 0.57 0.71 0.23 0.03 0.05 0.07 0.04 0.01 0.01 0.03 0.04 0.04 0.02 0.02 0.01 0.00 0.00 0.00 0.00 0.02 0.13 0.33 0.25 0.11 0.12 0.22 0.58 0.38 0.14 0.11 0.39 0.20 0.35 0.10 0.06
1.27 1.08 0.66 0.57 0.95 1.09 1.13 0.93 0.34 0.11 0.03 0.02 0.01 0.02 0.05 0.04 0.02 0.03 0.04 0.01 0.01 0.03 0.03 0.01 0.00 0.00 0.00 0.01 0.03 0.13 0.31 0.38 0.34 0.34 0.25 0.35 0.27 0.07 0.13 0.13 0.04 0.05 0.02 0.04
1.23 1.05 0.77 0.62 0.86 1.20 1.07 0.96 0.35 0.16 0.09 0.03 0.02 0.01 0.02 0.03 0.03 0.03 0.00 0.01 0.02 0.03 0.01 0.01 0.01 0.01 0.01 0.01 0.07 0.26 0.42 0.47 0.68 0.52 0.18 0.19 0.26 0.08 0.06 0.10 0.07 0.03 0.05 0.06
1.20 1.11 0.99 0.87 1.03 1.17 0.99 0.94 0.61 0.27 0.16 0.04 0.02 0.01 0.00 0.01 0.02 0.04 0.00 0.00 0.03 0.02 0.01 0.01 0.01 0.00 0.01 0.01 0.01 0.05 0.19 0.43 0.79 0.89 0.44 0.44 0.25 0.10 0.14 0.15 0.13 0.09 0.06 0.07
1.27 1.06 0.96 1.12 1.22 1.06 0.91 0.83 0.82 0.52 0.34 0.07 0.03 0.04 0.06 0.06 0.08 0.04 0.02 0.02 0.01 0.02 0.03 0.06 0.07 0.03 0.01 0.00 0.00 0.01 0.02 0.18 0.45 0.47 0.30 0.15 0.04 0.07 0.11 0.10 0.13 0.05 0.03 0.02
2.10 1.72 1.30 1.31 1.28 1.32 1.27 1.04 1.08 0.96 0.76 0.30 0.09 0.16 0.14 0.19 0.17 0.08 0.03 0.01 0.02 0.05 0.12 0.20 0.17 0.06 0.03 0.01 0.01 0.00 0.01 0.04 0.25 0.19 0.30 0.08 0.02 0.01 0.02 0.02 0.08 0.01 0.00 0.01
2.24 2.02 1.69 1.52 1.66 1.80 1.52 1.57 1.42 1.79 1.46 0.59 0.23 0.34 0.31 0.22 0.18 0.18 0.05 0.04 0.06 0.09 0.18 0.34 0.15 0.04 0.01 0.02 0.01 0.02 0.06 0.16 0.24 0.19 0.36 0.02 0.00 0.00 0.00 0.05 0.06 0.00 0.00 0.00
2.38 2.22 2.03 1.84 1.87 1.91 1.85 1.86 1.72 2.10 1.79 0.95 0.38 0.24 0.24 0.20 0.19 0.26 0.14 0.17 0.17 0.23 0.35 0.36 0.14 0.08 0.03 0.02 0.00 0.00 0.03 0.09 0.14 0.17 0.32 0.05 0.00 0.00 0.02 0.03 0.00 0.00 0.01 0.01
2.02 1.94 1.67 1.54 1.65 1.78 1.90 1.93 1.84 1.90 2.03 1.40 0.56 0.32 0.20 0.13 0.12 0.16 0.18 0.24 0.19 0.33 0.40 0.36 0.23 0.17 0.09 0.04 0.05 0.00 0.01 0.00 0.05 0.10 0.04 0.00 0.00 0.01 0.01 0.00 0.00 0.00 0.00 0.00
1.92 1.86 1.69 1.59 1.56 1.50 1.53 1.27 1.38 1.64 1.84 1.15 0.62 0.32 0.17 0.15 0.16 0.19 0.33 0.31 0.28 0.35 0.29 0.51 0.43 0.31 0.14 0.10 0.04 0.01 0.01 0.00 0.01 0.01 0.00 0.00 0.00 0.00 0.01 0.00 0.00 0.00 0.01 0.01
1.86 1.93 1.82 1.74 1.88 1.86 1.91 1.23 0.90 1.19 1.41 1.22 0.47 0.11 0.09 0.08 0.15 0.24 0.28 0.31 0.38 0.49 0.71 0.77 0.66 0.38 0.16 0.12 0.03 0.02 0.02 0.00 0.01 0.02 0.00 0.00 0.00 0.00 0.00 0.00 0.00 0.00 0.00 0.00
1.44 1.66 1.70 1.67 2.09 2.07 2.06 1.92 1.31 1.05 1.49 1.59 0.56 0.31 0.12 0.13 0.22 0.28 0.32 0.36 0.53 0.60 0.92 1.02 0.58 0.30 0.25 0.21 0.15 0.05 0.00 0.00 0.02 0.02 0.00 0.00 0.00 0.00 0.00 0.00 0.00 0.00 0.00 0.00
1.38 1.50 1.79 1.77 2.09 2.21 2.32 3.40 2.66 1.82 1.70 2.50 1.87 0.81 0.27 0.15 0.20 0.23 0.33 0.42 0.64 0.94 0.85 0.88 0.60 0.25 0.41 0.59 0.16 0.00 0.00 0.00 0.00 0.00 0.00 0.00 0.00 0.00 0.00 0.00 0.00 0.00 0.00 0.00
1.57 1.74 2.02 1.76 2.51 2.71 2.77 2.64 2.07 1.62 1.92 3.10 3.36 1.88 0.80 0.32 0.44 0.57 0.62 0.62 0.87 1.30 1.17 0.82 0.51 0.39 0.85 0.71 0.14 0.00 0.01 0.01 0.01 0.01 0.00 0.00 0.00 0.00 0.00 0.00 0.00 0.00 0.00 0.00
2.19 2.04 2.12 2.42 3.30 3.53 3.19 1.64 1.52 1.61 2.75 3.90 3.86 2.46 1.40 0.49 0.81 0.78 0.65 0.68 0.88 1.59 1.15 0.54 0.35 0.54 0.73 0.58 0.04 0.05 0.04 0.04 0.02 0.01 0.02 0.01 0.01 0.00 0.00 0.00 0.00 0.00 0.00 0.00
3.28 3.09 2.99 3.62 3.32 2.81 2.79 2.21 2.13 2.28 3.45 3.98 2.82 1.82 1.25 0.92 0.97 0.82 0.99 0.85 1.28 1.35 1.00 0.34 0.39 0.50 0.68 0.18 0.09 0.11 0.14 0.15 0.17 0.13 0.06 0.06 0.05 0.02 0.03 0.02 0.03 0.05 0.05 0.04
3.51 3.89 3.59 3.18 2.25 2.18 2.87 4.29 5.12 5.68 4.87 3.25 1.89 1.04 0.88 1.23 1.17 1.28 1.52 1.47 1.29 1.35 0.68 0.49 0.79 0.39 0.09 0.07 0.12 0.09 0.15 0.30 0.34 0.45 0.33 0.21 0.27 0.15 0.10 0.15 0.11 0.13 0.16 0.15
3.14 3.18 2.86 2.39 2.28 2.59 4.12 5.20 4.67 3.66 2.76 1.76 1.04 0.74 0.80 0.92 1.22 1.27 1.54 1.83 1.53 1.40 0.70 0.61 0.69 0.57 0.17 0.07 0.05 0.04 0.08 0.18 0.14 0.31 0.34 0.23 0.38 0.44 0.30 0.31 0.33 0.35 0.37 0.37
2.52 2.26 2.14 2.53 3.46 4.20 4.17 3.64 2.16 1.36 1.09 1.08 0.91 0.71 0.72 1.12 1.20 1.72 1.84 1.53 1.37 1.06 0.62 0.99 0.70 0.39 0.22 0.20 0.09 0.06 0.04 0.06 0.07 0.10 0.24 0.20 0.12 0.19 0.26 0.30 0.33 0.31 0.37 0.40
2.39 3.14 3.59 3.27 3.53 3.59 2.66 1.58 1.01 0.87 0.72 0.75 0.50 0.72 0.96 1.44 1.73 2.32 2.00 1.65 1.04 0.76 0.94 0.78 0.36 0.14 0.06 0.11 0.19 0.21 0.17 0.10 0.25 0.27 0.19 0.13 0.11 0.12 0.20 0.25 0.15 0.17 0.20 0.21
3.54 3.52 3.20 2.20 1.86 1.16 0.79 0.54 0.46 0.48 0.60 0.63 0.63 0.76 1.04 1.34 1.59 1.68 1.67 1.21 0.98 1.24 0.91 0.55 0.28 0.19 0.11 0.05 0.08 0.14 0.19 0.17 0.29 0.61 0.67 0.55 0.55 0.47 0.38 0.38 0.35 0.33 0.30 0.24
3.95 3.00 1.93 1.08 0.63 0.38 0.42 0.39 0.46 0.54 0.77 1.03 1.12 1.20 1.25 1.44 1.80 1.36 1.10 1.25 1.31 0.87 0.61 0.51 0.42 0.40 0.36 0.33 0.27 0.23 0.26 0.34 0.40 0.46 0.62 0.64 0.50 0.35 0.39 0.52 0.50 0.37 0.32 0.27
3.40 2.50 1.17 0.49 0.28 0.36 0.24 0.30 0.42 0.45 0.62 0.99 1.39 1.49 1.52 1.45 1.33 1.25 0.96 1.00 0.76 0.66 0.66 0.66 0.57 0.53 0.52 0.55 0.49 0.45 0.45 0.49 0.58 0.59 0.70 0.64 0.68 0.74 0.73 0.60 0.67 0.58 0.47 0.45
3.36 1.42 0.59 0.40 0.32 0.31 0.31 0.35 0.41 0.53 0.72 0.97 1.34 1.55 1.11 1.15 1.23 0.85 0.72 0.85 0.76 0.66 0.55 0.45 0.45 0.42 0.46 0.48 0.43 0.44 0.47 0.47 0.54 0.65 0.76 0.88 0.95 0.88 0.79 0.74 0.88 0.82 0.85 0.86

GFSNW_prec_precacc_261.txt.gz
Total_Precipitation_Accumulation
0.87 0.81 0.85 0.93 1.47 2.09 2.15 1.75 1.70 1.84 1.27 1.58 1.23 0.76 0.46 0.16 0.04 0.01 0.00 0.00 0.01 0.01 0.02 0.01 0.01 0.01 0.02 0.02 0.01 0.01 0.00 0.13 0.17 0.11 0.06 0.06 0.07 0.03 0.12 0.42 0.26 0.41 0.56 0.44
0.69 0.70 0.68 0.77 1.03 1.40 2.02 1.55 1.84 1.97 0.94 0.76 0.57 0.30 0.08 0.09 0.06 0.03 0.00 0.00 0.00 0.01 0.01 0.01 0.01 0.00 0.00 0.00 0.00 0.01 0.01 0.15 0.22 0.24 0.20 0.12 0.17 0.05 0.10 0.22 0.48 0.38 0.49 0.14
0.76 0.65 0.56 0.66 0.97 1.19 1.55 1.28 1.76 2.30 1.30 0.36 0.09 0.14 0.12 0.06 0.03 0.01 0.01 0.02 0.02 0.01 0.01 0.00 0.00 0.00 0.00 0.00 0.00 0.02 0.11 0.17 0.12 0.14 0.31 0.42 0.32 0.07 0.09 0.39 0.69 0.20 0.13 0.05
0.95 0.79 0.65 0.64 0.96 1.32 1.23 0.82 0.49 0.57 0.71 0.23 0.03 0.05 0.07 0.04 0.01 0.01 0.03 0.04 0.04 0.02 0.02 0.01 0.00 0.00 0.00 0.00 0.02 0.13 0.33 0.25 0.11 0.12 0.22 0.58 0.38 0.14 0.11 0.39 0.20 0.35 0.10 0.06
1.35 1.17 0.76 0.66 0.98 1.09 1.13 0.93 0.34 0.11 0.03 0.02 0.01 0.02 0.05 0.04 0.02 0.03 0.04 0.01 0.01 0.03 0.03 0.01 0.00 0.00 0.00 0.01 0.03 0.13 0.31 0.38 0.34 0.34 0.25 0.35 0.27 0.07 0.13 0.13 0.04 0.05 0.02 0.04
1.35 1.19 0.93 0.77 0.98 1.21 1.07 0.96 0.35 0.16 0.09 0.03 0.02 0.01 0.02 0.03 0.03 0.03 0.00 0.01 0.02 0.03 0.01 0.01 0.01 0.01 0.01 0.01 0.07 0.26 0.42 0.47 0.68 0.52 0.18 0.19 0.26 0.08 0.06 0.10 0.07 0.03 0.05 0.06
1.32 1.27 1.16 1.06 1.24 1.27 0.99 0.94 0.61 0.27 0.16 0.04 0.02 0.01 0.00 0.01 0.02 0.04 0.00 0.00 0.03 0.02 0.01 0.01 0.01 0.00 0.01 0.01 0.01 0.05 0.19 0.43 0.79 0.89 0.44 0.44 0.25 0.10 0.14 0.15 0.13 0.09 0.06 0.07
1.35 1.20 1.15 1.31 1.46 1.26 0.95 0.83 0.82 0.52 0.34 0.07 0.03 0.04 0.06 0.06 0.08 0.04 0.02 0.02 0.01 0.02 0.03 0.06 0.07 0.03 0.01 0.00 0.00 0.01 0.02 0.18 0.46 0.47 0.31 0.15 0.04 0.07 0.11 0.10 0.13 0.05 0.03 0.02
2.16 1.83 1.49 1.53 1.52 1.55 1.42 1.05 1.08 0.96 0.76 0.30 0.09 0.16 0.14 0.19 0.17 0.08 0.03 0.01 0.02 0.05 0.12 0.20 0.17 0.06 0.03 0.01 0.01 0.00 0.01 0.04 0.26 0.20 0.30 0.08 0.02 0.01 0.02 0.02 0.08 0.01 0.00 0.01
2.27 2.06 1.80 1.70 1.88 2.10 1.80 1.69 1.42 1.79 1.46 0.59 0.23 0.34 0.31 0.22 0.18 0.18 0.05 0.04 0.06 0.09 0.18 0.34 0.15 0.04 0.01 0.02 0.01 0.02 0.06 0.16 0.24 0.20 0.38 0.02 0.00 0.00 0.00 0.05 0.06 0.00 0.00 0.00
2.44 2.29 2.14 2.01 2.08 2.16 2.20 2.07 1.74 2.10 1.79 0.95 0.38 0.24 0.24 0.20 0.19 0.26 0.14 0.17 0.17 0.23 0.35 0.36 0.14 0.08 0.03 0.02 0.00 0.00 0.03 0.10 0.15 0.17 0.33 0.05 0.00 0.00 0.02 0.03 0.00 0.00 0.01 0.01
2.08 2.00 1.76 1.66 1.82 2.00 2.26 2.20 1.95 1.91 2.04 1.40 0.56 0.32 0.20 0.13 0.12 0.16 0.18 0.24 0.19 0.33 0.40 0.36 0.23 0.17 0.09 0.04 0.05 0.00 0.01 0.00 0.05 0.10 0.04 0.00 0.00 0.01 0.01 0.00 0.00 0.00 0.00 0.00
1.99 1.93 1.76 1.70 1.70 1.70 1.92 1.63 1.60 1.73 1.89 1.18 0.63 0.32 0.17 0.15 0.16 0.19 0.33 0.31 0.28 0.35 0.29 0.51 0.43 0.31 0.14 0.10 0.04 0.01 0.01 0.00 0.01 0.01 0.00 0.00 0.00 0.00 0.01 0.00 0.00 0.00 0.01 0.01
1.90 1.98 1.89 1.85 2.01 2.04 2.23 1.69 1.25 1.37 1.47 1.26 0.47 0.11 0.09 0.08 0.15 0.24 0.28 0.31 0.38 0.49 0.71 0.77 0.66 0.38 0.16 0.12 0.03 0.02 0.02 0.01 0.02 0.04 0.00 0.02 0.01 0.00 0.00 0.00 0.00 0.00 0.00 0.00
1.48 1.72 1.76 1.76 2.20 2.25 2.36 2.36 1.82 1.27 1.55 1.62 0.56 0.31 0.12 0.13 0.22 0.28 0.32 0.36 0.53 0.60 0.92 1.02 0.58 0.30 0.25 0.22 0.17 0.06 0.00 0.00 0.03 0.04 0.00 0.02 0.00 0.00 0.00 0.00 0.00 0.00 0.00 0.00
1.43 1.55 1.86 1.86 2.20 2.37 2.61 3.85 3.20 2.28 1.91 2.61 1.92 0.83 0.27 0.15 0.20 0.23 0.33 0.42 0.64 0.95 0.87 0.91 0.63 0.28 0.42 0.66 0.22 0.00 0.00 0.00 0.00 0.00 0.00 0.00 0.00 0.00 0.00 0.00 0.00 0.00 0.00 0.00
1.62 1.79 2.09 1.84 2.60 2.82 3.04 3.07 2.46 2.03 2.39 3.54 3.78 2.11 0.86 0.33 0.46 0.61 0.68 0.69 0.96 1.41 1.31 0.99 0.67 0.48 0.95 0.88 0.21 0.00 0.01 0.01 0.01 0.01 0.00 0.00 0.00 0.00 0.00 0.00 0.00 0.00 0.00 0.00
2.27 2.15 2.19 2.50 3.38 3.65 3.39 1.88 1.79 1.86 3.14 4.49 4.46 2.81 1.51 0.54 0.85 0.84 0.79 0.86 1.11 1.88 1.48 0.82 0.52 0.68 0.91 0.72 0.07 0.05 0.04 0.04 0.02 0.02 0.02 0.01 0.01 0.00 0.00 0.00 0.00 0.00 0.00 0.00
3.43 3.32 3.11 3.74 3.43 2.93 2.92 2.39 2.37 2.58 3.95 4.68 3.39 2.14 1.36 0.96 1.01 0.85 1.08 1.02 1.52 1.62 1.24 0.51 0.51 0.64 0.79 0.23 0.11 0.12 0.16 0.19 0.18 0.13 0.06 0.06 0.05 0.02 0.03 0.02 0.03 0.05 0.05 0.04
3.75 4.12 3.72 3.28 2.31 2.26 2.98 4.44 5.31 5.94 5.30 3.73 2.30 1.29 0.99 1.29 1.21 1.37 1.67 1.66 1.48 1.55 0.81 0.58 0.89 0.45 0.10 0.08 0.17 0.15 0.19 0.31 0.34 0.45 0.33 0.21 0.27 0.15 0.10 0.15 0.11 0.13 0.16 0.15
3.32 3.32 2.95 2.44 2.35 2.74 4.32 5.38 4.85 3.84 2.94 1.92 1.17 0.85 0.86 0.99 1.31 1.38 1.71 2.01 1.68 1.52 0.78 0.66 0.75 0.57 0.17 0.10 0.10 0.06 0.09 0.18 0.14 0.31 0.34 0.23 0.38 0.44 0.30 0.31 0.33 0.35 0.37 0.37
2.63 2.34 2.22 2.62 3.58 4.35 4.33 3.80 2.30 1.48 1.18 1.15 0.96 0.78 0.80 1.22 1.31 1.84 1.97 1.65 1.47 1.15 0.65 1.02 0.71 0.39 0.23 0.21 0.10 0.06 0.04 0.06 0.07 0.10 0.24 0.20 0.12 0.19 0.26 0.30 0.33 0.31 0.37 0.40
2.60 3.30 3.68 3.33 3.59 3.68 2.75 1.67 1.09 0.93 0.76 0.78 0.54 0.80 1.07 1.56 1.86 2.44 2.11 1.76 1.12 0.79 0.95 0.79 0.36 0.14 0.06 0.11 0.19 0.21 0.17 0.10 0.25 0.27 0.19 0.13 0.11 0.12 0.20 0.25 0.15 0.17 0.20 0.21
3.72 3.62 3.24 2.23 1.88 1.19 0.83 0.59 0.51 0.54 0.68 0.71 0.72 0.84 1.13 1.42 1.67 1.77 1.73 1.28 1.02 1.27 0.93 0.55 0.28 0.19 0.11 0.05 0.08 0.14 0.19 0.17 0.29 0.61 0.67 0.55 0.55 0.47 0.38 0.38 0.35 0.33 0.30 0.24
4.05 3.05 1.96 1.09 0.64 0.40 0.47 0.47 0.53 0.62 0.87 1.12 1.20 1.26 1.30 1.51 1.85 1.40 1.14 1.29 1.35 0.89 0.61 0.52 0.42 0.40 0.36 0.33 0.27 0.23 0.26 0.34 0.40 0.46 0.62 0.64 0.50 0.35 0.39 0.52 0.50 0.37 0.32 0.27
3.47 2.53 1.19 0.51 0.29 0.38 0.27 0.34 0.46 0.48 0.66 1.01 1.39 1.50 1.54 1.48 1.34 1.27 0.98 1.01 0.78 0.66 0.66 0.66 0.57 0.53 0.52 0.55 0.49 0.45 0.45 0.49 0.58 0.59 0.70 0.64 0.68 0.74 0.73 0.60 0.67 0.58 0.47 0.45
3.40 1.46 0.61 0.43 0.34 0.31 0.32 0.35 0.41 0.53 0.72 0.97 1.34 1.55 1.11 1.15 1.23 0.85 0.72 0.85 0.76 0.66 0.55 0.46 0.45 0.42 0.46 0.48 0.43 0.44 0.47 0.47 0.54 0.65 0.76 0.88 0.95 0.88 0.79 0.74 0.88 0.82 0.85 0.86

GFSNW_prec_precacc_264.txt.gz
Total_Precipitation_Accumulation
0.88 0.81 0.85 0.93 1.48 2.09 2.15 1.75 1.70 1.84 1.27 1.58 1.23 0.76 0.46 0.16 0.04 0.01 0.00 0.00 0.01 0.01 0.02 0.01 0.01 0.01 0.02 0.02 0.01 0.01 0.00 0.13 0.17 0.11 0.06 0.06 0.07 0.03 0.12 0.42 0.26 0.41 0.56 0.44
0.69 0.70 0.69 0.78 1.06 1.41 2.02 1.55 1.84 1.97 0.94 0.76 0.57 0.30 0.08 0.09 0.06 0.03 0.00 0.00 0.00 0.01 0.01 0.01 0.01 0.00 0.00 0.00 0.00 0.01 0.01 0.15 0.22 0.24 0.20 0.12 0.17 0.05 0.10 0.22 0.48 0.38 0.49 0.14
0.77 0.66 0.58 0.71 1.06 1.24 1.55 1.28 1.76 2.30 1.30 0.36 0.09 0.14 0.12 0.06 0.03 0.01 0.01 0.02 0.02 0.01 0.01 0.00 0.00 0.00 0.00 0.00 0.00 0.02 0.11 0.17 0.12 0.14 0.31 0.42 0.32 0.07 0.09 0.39 0.69 0.20 0.13 0.05
0.97 0.82 0.69 0.74 1.15 1.51 1.25 0.82 0.49 0.57 0.71 0.23 0.03 0.05 0.07 0.04 0.01 0.01 0.03 0.04 0.04 0.02 0.02 0.01 0.00 0.00 0.00 0.00 0.02 0.13 0.33 0.25 0.11 0.12 0.22 0.58 0.38 0.14 0.11 0.39 0.20 0.35 0.10 0.06
1.37 1.23 0.83 0.78 1.24 1.42 1.27 0.94 0.34 0.11 0.03 0.02 0.01 0.02 0.05 0.04 0.02 0.03 0.04 0.01 0.01 0.03 0.03 0.01 0.00 0.00 0.00 0.01 0.03 0.13 0.31 0.38 0.34 0.34 0.25 0.35 0.27 0.07 0.13 0.13 0.04 0.05 0.02 0.04
1.37 1.23 1.02 0.91 1.26 1.71 1.37 1.01 0.35 0.16 0.09 0.03 0.02 0.01 0.02 0.03 0.03 0.03 0.00 0.01 0.02 0.03 0.01 0.01 0.01 0.01 0.01 0.01 0.07 0.26 0.42 0.47 0.68 0.52 0.18 0.19 0.26 0.08 0.06 0.10 0.07 0.03 0.05 0.06
1.34 1.30 1.24 1.23 1.50 1.76 1.41 1.10 0.65 0.27 0.16 0.04 0.02 0.01 0.00 0.01 0.02 0.04 0.00 0.00 0.03 0.02 0.01 0.01 0.01 0.00 0.01 0.01 0.01 0.05 0.19 0.43 0.79 0.89 0.44 0.44 0.25 0.10 0.14 0.15 0.13 0.09 0.06 0.07
1.38 1.24 1.22 1.50 1.74 1.62 1.41 1.08 0.96 0.55 0.34 0.07 0.03 0.04 0.06 0.06 0.08 0.04 0.02 0.02 0.01 0.02 0.03 0.06 0.07 0.03 0.01 0.00 0.00 0.01 0.02 0.18 0.46 0.48 0.31 0.15 0.04 0.07 0.11 0.10 0.13 0.05 0.03 0.02
2.19 1.87 1.55 1.68 1.81 1.93 1.86 1.36 1.29 1.08 0.78 0.30 0.09 0.16 0.14 0.19 0.17 0.08 0.03 0.01 0.02 0.05 0.12 0.20 0.17 0.06 0.03 0.01 0.01 0.00 0.01 0.04 0.26 0.21 0.31 0.08 0.02 0.01 0.02 0.02 0.08 0.01 0.00 0.01
2.30 2.11 1.85 1.80 2.09 2.42 2.24 2.02 1.66 2.03 1.58 0.60 0.23 0.34 0.31 0.22 0.18 0.18 0.05 0.04 0.06 0.09 0.18 0.34 0.15 0.04 0.01 0.02 0.01 0.02 0.06 0.16 0.25 0.20 0.39 0.02 0.00 0.00 0.00 0.05 0.06 0.00 0.00 0.00
2.47 2.32 2.17 2.07 2.25 2.49 2.72 2.40 2.01 2.50 2.04 1.01 0.38 0.24 0.24 0.20 0.19 0.26 0.14 0.17 0.17 0.23 0.35 0.36 0.14 0.08 0.03 0.02 0.00 0.00 0.03 0.10 0.15 0.18 0.34 0.06 0.00 0.00 0.02 0.03 0.00 0.00 0.01 0.01
2.13 2.04 1.79 1.71 1.93 2.25 2.72 2.62 2.16 2.27 2.47 1.59 0.57 0.32 0.20 0.13 0.12 0.16 0.18 0.24 0.19 0.33 0.40 0.36 0.23 0.17 0.09 0.04 0.05 0.00 0.01 0.00 0.05 0.10 0.04 0.00 0.00 0.01 0.01 0.00 0.00 0.00 0.00 0.00
2.03 1.98 1.83 1.76 1.80 1.89 2.32 2.03 1.79 2.20 2.34 1.45 0.71 0.32 0.17 0.15 0.16 0.19 0.33 0.31 0.28 0.35 0.29 0.51 0.43 0.31 0.14 0.10 0.04 0.01 0.01 0.00 0.01 0.01 0.00 0.00 0.00 0.00 0.01 0.00 0.00 0.00 0.01 0.01
1.95 2.06 2.00 1.96 2.15 2.23 2.54 2.05 1.43 1.81 1.97 1.62 0.64 0.13 0.09 0.08 0.15 0.24 0.28 0.31 0.38 0.49 0.71 0.77 0.66 0.38 0.16 0.12 0.03 0.02 0.02 0.01 0.02 0.04 0.00 0.02 0.01 0.00 0.00 0.00 0.00 0.00 0.00 0.00
1.51 1.76 1.82 1.85 2.31 2.38 2.58 2.63 1.99 1.54 2.10 2.00 0.73 0.36 0.12 0.13 0.22 0.28 0.32 0.36 0.53 0.60 0.92 1.02 0.58 0.30 0.25 0.22 0.17 0.06 0.00 0.00 0.03 0.05 0.01 0.05 0.04 0.01 0.00 0.00 0.00 0.00 0.00 0.00
1.46 1.58 1.89 1.89 2.27 2.50 2.86 4.10 3.31 2.45 2.30 3.10 2.16 0.93 0.29 0.15 0.20 0.23 0.33 0.42 0.64 0.95 0.87 0.91 0.63 0.28 0.42 0.66 0.22 0.00 0.00 0.00 0.00 0.01 0.03 0.06 0.05 0.01 0.00 0.00 0.00 0.00 0.00 0.00
1.68 1.85 2.14 1.89 2.72 3.03 3.30 3.25 2.54 2.15 2.67 4.12 4.18 2.30 0.91 0.34 0.46 0.61 0.68 0.69 0.96 1.41 1.31 0.99 0.67 0.49 0.97 0.92 0.25 0.01 0.01 0.01 0.01 0.04 0.11 0.11 0.03 0.00 0.00 0.00 0.00 0.00 0.00 0.00
2.29 2.19 2.25 2.57 3.53 3.84 3.50 1.95 1.84 1.95 3.41 5.03 4.95 3.08 1.61 0.57 0.86 0.86 0.79 0.87 1.14 1.92 1.53 0.91 0.60 0.77 1.06 0.89 0.15 0.06 0.05 0.11 0.17 0.19 0.14 0.07 0.02 0.00 0.00 0.00 0.00 0.00 0.00 0.00
3.45 3.41 3.30 3.93 3.56 2.99 2.95 2.46 2.48 2.71 4.27 5.19 3.81 2.33 1.44 1.01 1.03 0.89 1.15 1.10 1.65 1.82 1.43 0.67 0.65 0.81 0.97 0.37 0.17 0.16 0.27 0.38 0.37 0.25 0.11 0.08 0.05 0.02 0.03 0.02 0.03 0.05 0.05 0.04
3.83 4.33 3.92 3.44 2.34 2.28 3.06 4.61 5.53 6.16 5.56 4.02 2.55 1.46 1.08 1.36 1.25 1.41 1.79 1.87 1.72 1.79 0.99 0.73 1.06 0.60 0.19 0.17 0.32 0.31 0.36 0.44 0.41 0.48 0.34 0.21 0.27 0.15 0.10 0.15 0.11 0.13 0.16 0.15
3.44 3.51 3.09 2.49 2.40 2.83 4.49 5.58 5.05 4.01 3.06 2.01 1.25 0.95 0.96 1.10 1.41 1.51 1.90 2.23 1.91 1.73 0.92 0.78 0.89 0.64 0.20 0.19 0.29 0.27 0.23 0.26 0.17 0.32 0.34 0.23 0.38 0.44 0.30 0.31 0.33 0.35 0.37 0.37
2.77 2.52 2.35 2.73 3.69 4.47 4.46 3.93 2.44 1.59 1.25 1.18 0.99 0.86 0.90 1.33 1.42 1.97 2.13 1.78 1.58 1.26 0.71 1.09 0.79 0.42 0.29 0.33 0.22 0.16 0.10 0.09 0.08 0.10 0.24 0.20 0.12 0.19 0.26 0.30 0.33 0.31 0.37 0.40
2.79 3.48 3.81 3.45 3.68 3.78 2.83 1.73 1.15 0.98 0.80 0.81 0.57 0.87 1.15 1.67 1.97 2.54 2.22 1.88 1.21 0.87 1.02 0.87 0.41 0.20 0.15 0.17 0.23 0.23 0.17 0.10 0.25 0.27 0.19 0.13 0.11 0.12 0.20 0.25 0.15 0.17 0.20 0.21
3.91 3.75 3.33 2.31 1.94 1.23 0.86 0.62 0.55 0.60 0.75 0.80 0.81 0.92 1.20 1.51 1.75 1.86 1.81 1.36 1.09 1.34 0.99 0.61 0.34 0.25 0.13 0.06 0.08 0.14 0.19 0.17 0.29 0.61 0.67 0.55 0.55 0.47 0.38 0.38 0.35 0.33 0.30 0.24
4.14 3.11 2.00 1.14 0.69 0.45 0.51 0.52 0.59 0.71 0.99 1.24 1.29 1.35 1.37 1.59 1.92 1.46 1.19 1.36 1.41 0.94 0.67 0.56 0.44 0.41 0.36 0.33 0.27 0.23 0.26 0.34 0.40 0.46 0.62 0.64 0.50 0.35 0.39 0.52 0.50 0.37 0.32 0.27
3.51 2.54 1.21 0.55 0.33 0.42 0.30 0.41 0.52 0.57 0.76 1.07 1.44 1.55 1.59 1.54 1.40 1.32 1.04 1.06 0.82 0.69 0.67 0.66 0.57 0.53 0.52 0.55 0.49 0.45 0.45 0.49 0.58 0.59 0.70 0.64 0.68 0.74 0.73 0.60 0.67 0.58 0.47 0.45
3.43 1.51 0.67 0.51 0.40 0.37 0.37 0.41 0.46 0.56 0.73 0.97 1.34 1.56 1.12 1.16 1.23 0.86 0.73 0.86 0.77 0.67 0.55 0.46 0.46 0.42 0.46 0.48 0.43 0.44 0.47 0.47 0.54 0.65 0.76 0.88 0.95 0.88 0.79 0.74 0.88 0.82 0.85 0.86